THORAD AGENA D DEB, 4854

Orbit data source: Space-Track

THORAD AGENA D DEB, 4854 is space debris in SSO originally from a launch on Wed, 08 Apr 1970 UTC launched from the Air Force Western Test Range (AFWTR). Debris objects in space refer to the collection of defunct objects orbiting the Earth. Examples of debris include non-operational satellites, rocket bodies, and fragments generated from explosions, collisions, or faulty payload assembly.

Loading next visibility...
Identifier
4854, 1970-025EJ
Orbit
SSO
Country
Flag of USUS
Related business
Manufacturer
Unknown
Mission
Spacecraft
Bus & Motor
Unknown
Mass
Unknown
Launch date (UTC)
1970-04-08 (56 years ago)
Launch vehicle
Unknown
Launch site
Air Force Western Test Range (AFWTR)
Object type
Payload
Rocket body
Debris
Shape & HBR
Unknown shape, 0.1 m
Radar Cross Section
Small (<0.1 m²)

Expand to show TLE details & history
Last TLE update: 11 hours ago

TLE from 11 hours ago
0 THORAD AGENA D DEB
1  4854U 70025EJ  26124.01121199  .00000251  00000-0  41185-3 0  9994
2  4854  99.3584 321.0500 0016459 290.2301 224.9727 13.57050050766316
Epoch: 2026-05-04T00:16Z
TLE epoch observation values (Epoch: 2026-05-04T00:16:08.715Z)
Latitude
24.60319°
Longitude
-80.58729°
Altitude
1,057.972 km
Speed
7.321 km/s
True Right ascension
09h 41m 25s
True Declination
24° 28' 43"
Sunlit
Object was in daylight at epoch
Visualization orbit readout
Latitude
Unknown
Longitude
Unknown
Altitude
Unknown
Speed
Unknown
Apparent Right ascension
Unknown
Apparent Declination
Unknown
Sunlit
N/A
Visualization observer readout
Local Sidereal Time
18:45:05
Azimuth
Unknown
Elevation
Unknown
Doppler factor
Unknown
Orbital elements
Apogee altitude
1,055.923 km
Perigee altitude
1,031.491 km
Semi-major axis
7,421.844 km
Eccentricity
0.00165
Inclination
99.3584°
RAAN
321.05°
Arg. of periapsis
290.2301°
True anomaly
224.83959°
Mean anomaly
224.9727°
Eccentric anomaly
224.90613°
Mean motion
3.3945 °/min
Orbital period
106.05 mins
BSTAR
0.00041185
Loading maneuver chart data...
Computing Atmospheric mass density...

Documentation

Showing up to 5 results
|